Home   Weather   Vila Nova de Gaia   Past weeks

Flag for Portugal Past Weather in Vila Nova de Gaia, Portugal — Yesterday and Last 2 Weeks

Now
68 °F

Passing clouds.


Feels Like: 68 °F
Forecast: 64 / 75 °F
Wind: 6 mph from North

Location: Porto / Pedras Rubras

Current Time: Jul 27, 2017 at 10:03:50 am

Latest Report: Jul 27, 2017 at 9:30 am


Visibility: N/A

Pressure: 30.07 "Hg

Humidity: 83%

Dew Point: 63 °F

Location of Vila Nova de GaiaLocation

Past Weather in Vila Nova de Gaia — Graph

°F

Vila Nova de Gaia Temperature Yesterday

Maximum temperature yesterday: 73 °F (at 10:00 am)
Minimum temperature yesterday: 59 °F (at 3:30 am)
Average temperature yesterday: 67 °F

High & Low Weather Summary for the Past Weeks

 TemperatureHumidityPressure
High79 °F (Jul 14, 4:00 pm)100% (Jul 12, 8:00 am)30.24 "Hg (Jul 12, 8:00 am)
Low54 °F (Jul 21, 5:00 am)50% (Jul 25, 12:30 pm)29.89 "Hg (Jul 18, 3:30 am)
Average66 °F82%30.04 "Hg
* Reported Jul 12 8:00 am — Jul 27 8:30 am, Vila Nova de Gaia. Weather by CustomWeather, © 2017

Note: Actual official high and low records may vary slightly from our data, if they occured in-between our weather recording intervals... More about our weather records

Advertising

Vila Nova de Gaia Weather History for the Previous 24 Hours

Scroll right to see more
 ConditionsComfort  
Time TempWeatherWind HumidityBarometerVisibility
8:30 am
Thu, Jul 27
63 °FSunny.5 mph100%30.07 "Hg10 mi
8:00 am61 °FSunny.No wind100%30.04 "Hg10 mi
7:30 am59 °FPassing clouds.3 mph94%30.04 "Hg5 mi
7:00 am57 °FPassing clouds.2 mph100%30.04 "Hg4 mi
6:30 am59 °FPassing clouds.1 mph94%30.04 "Hg5 mi
6:00 am59 °FPassing clouds.3 mph100%30.01 "Hg6 mi
5:30 am59 °FPassing clouds.6 mph100%30.04 "HgN/A
5:00 am59 °FPassing clouds.6 mph94%30.01 "HgN/A
4:30 am59 °FClear.5 mph94%30.04 "Hg10 mi
4:00 am59 °FClear.1 mph94%30.04 "Hg10 mi
3:30 am61 °FClear.2 mph94%30.04 "Hg10 mi
3:00 am61 °FClear.5 mph94%30.04 "Hg10 mi
2:30 am61 °FClear.7 mph94%30.04 "Hg10 mi
2:00 am63 °FClear.8 mph94%30.04 "Hg10 mi
1:30 am63 °FClear.9 mph88%30.04 "Hg10 mi
1:00 am63 °FClear.10 mph88%30.04 "Hg10 mi
12:30 am61 °FClear.10 mph94%30.04 "Hg10 mi
12:00 am63 °FPassing clouds.7 mph88%30.04 "HgN/A
11:30 pm
Wed, Jul 26
63 °FPassing clouds.7 mph88%30.04 "HgN/A
11:00 pm63 °FClear.9 mph88%30.04 "Hg10 mi
10:30 pm63 °FClear.10 mph88%30.04 "Hg10 mi
10:00 pm63 °FClear.10 mph88%30.04 "Hg10 mi
9:30 pm64 °FPassing clouds.8 mph83%30.01 "HgN/A
9:00 pm64 °FClear.13 mph83%30.01 "Hg10 mi
8:30 pm66 °FSunny.10 mph73%30.01 "Hg10 mi
8:00 pm68 °FSunny.14 mph69%30.01 "Hg10 mi
7:30 pm70 °FPassing clouds.8 mph69%30.01 "HgN/A
7:00 pm70 °FSunny.13 mph64%30.01 "Hg10 mi
6:30 pm72 °FPassing clouds.15 mph61%30.01 "HgN/A
6:00 pm72 °FSunny.14 mph61%30.01 "Hg10 mi
5:30 pm73 °FSunny.13 mph61%30.01 "Hg10 mi
5:00 pm72 °FSunny.12 mph65%30.04 "Hg10 mi
4:30 pm72 °FSunny.13 mph65%30.04 "Hg10 mi
4:00 pm73 °FSunny.13 mph61%30.04 "Hg10 mi
3:30 pm72 °FSunny.15 mph65%30.04 "Hg10 mi
3:00 pm73 °FSunny.13 mph65%30.04 "Hg10 mi
2:00 pm73 °FPassing clouds.10 mph61%30.04 "HgN/A
1:30 pm73 °FPassing clouds.10 mph65%30.04 "HgN/A
1:00 pm73 °FSunny.9 mph65%30.04 "Hg10 mi
12:30 pm73 °FSunny.12 mph65%30.04 "Hg10 mi
12:00 pm73 °FSunny.8 mph65%30.04 "Hg10 mi
11:30 am72 °FPassing clouds.8 mph69%30.04 "HgN/A
11:00 am73 °FSunny.6 mph65%30.04 "Hg10 mi
10:30 am73 °FSunny.8 mph65%30.04 "Hg10 mi
10:00 am73 °FPassing clouds.6 mph61%30.04 "HgN/A
Weather by CustomWeather, © 2017

See weather overviewHow to use our weather pages